1535007600.25,51168,20.88,74570.5,8.91,-15.43,-16.65,0,*71
1535007601.44,51169,20.88,74570.8,8.91,-15.29,-16.45,0,*7E
1535007602.66,51170,20.88,74568.8,8.93,-15.15,-16.45,0,*7B
1535007603.87,51171,20.88,74572.3,8.93,-15.25,-16.45,0,*79
1535007605.13,51172,20.88,74570.8,8.93,-15.39,-16.59,0,*7A
1535007606.32,51173,20.88,74572.8,8.91,-15.15,-16.37,0,*7F
1535007607.57,51174,20.88,74570.8,8.91,-14.83,-16.13,0,*70
1535007608.79,51175,20.88,74568.3,8.91,-14.11,-15.29,0,*70
1535007610.01,51176,20.88,74570.3,8.93,-12.89,-14.23,0,*7D
1535007611.26,51177,20.88,74574.0,8.95,-11.55,-12.79,0,*71
1535007612.51,51178,20.88,74568.8,8.99,-10.67,-11.89,0,*7E
1535007613.73,51179,20.88,74572.5,9.05,-10.27,-11.41,0,*7B
1535007614.96,51180,20.88,74574.3,9.09,-10.15,-11.33,0,*75
1535007616.18,51181,20.88,74572.8,9.17,-10.05,-11.29,0,*71
1535007617.39,51182,20.88,74574.3,9.19,-9.97,-11.11,0,*44
1535007618.63,51183,20.88,74574.0,9.23,-9.83,-11.01,0,*48
1535007619.85,51184,20.88,74572.0,9.31,-9.71,-10.93,0,*4B
1535007621.12,51185,20.88,74574.3,9.35,-9.83,-11.07,0,*4F
1535007622.38,51186,20.88,74574.5,9.39,-9.49,-10.63,0,*45
1535007623.63,51187,20.88,74572.0,9.43,-9.53,-10.75,0,*45
1535007624.87,51188,20.88,74570.5,9.47,-9.61,-10.71,0,*4B
1535007626.13,51189,20.88,74572.3,9.53,-9.57,-10.67,0,*4D
1535007627.36,51190,20.88,74568.8,9.59,-9.37,-10.57,0,*4A
1535007628.58,51191,20.88,74570.8,9.63,-9.31,-10.41,0,*43
1535007629.83,51192,20.88,74570.3,9.65,-9.15,-10.23,0,*44
1535007631.06,51193,20.88,74572.0,9.71,-9.11,-10.19,0,*4D
1535007632.3,51194,20.88,74574.3,9.79,-9.11,-10.19,0,*42
1535007633.53,51195,20.88,74574.5,9.83,-9.11,-10.27,0,*4B
1535007634.74,51196,20.88,74570.8,9.87,-9.01,-10.15,0,*4C
1535007635.93,51197,20.88,74572.8,9.91,-8.97,-10.09,0,*49
1535007637.13,51198,20.88,74568.8,9.95,-8.93,-9.97,0,*79
1535007638.36,51199,20.88,74570.3,10.01,-8.89,-9.93,0,*42
1535007639.57,51200,20.88,74572.5,10.05,-8.97,-10.01,0,*79
1535007640.79,51201,20.88,74574.0,10.09,-8.85,-9.83,0,*45
1535007642.01,51202,20.88,74574.0,10.13,-8.81,-9.79,0,*4C
1535007643.24,51203,20.88,74574.3,10.15,-8.97,-10.15,0,*7E
1535007644.46,51204,20.88,74572.8,10.23,-8.75,-9.93,0,*46
1535007645.66,51205,20.88,74570.3,10.25,-8.85,-9.93,0,*4E
1535007646.9,51206,20.88,74568.5,10.27,-8.93,-10.01,0,*7B
1535007648.15,51207,20.88,74570.3,10.31,-8.85,-9.83,0,*48
1535007649.39,51208,20.88,74568.0,10.35,-8.81,-9.97,0,*42
1535007650.59,51209,20.88,74572.5,10.39,-8.89,-9.89,0,*48
1535007651.83,51210,20.88,74574.0,10.45,-8.81,-9.79,0,*4C
1535007653.03,51211,20.88,74572.8,10.47,-8.67,-9.67,0,*48
1535007654.28,51212,20.88,74574.0,10.51,-8.51,-9.61,0,*4F
1535007655.5,51213,20.88,74574.0,10.53,-8.63,-9.67,0,*4B
1535007656.72,51214,20.88,74570.3,10.57,-8.55,-9.71,0,*4A
1535007657.96,51215,20.88,74576.0,10.61,-8.45,-9.53,0,*4F
1535007659.17,51216,20.88,74570.5,10.67,-8.45,-9.49,0,*41
1535007660.42,51217,20.88,74572.8,10.71,-8.41,-9.49,0,*43
1535007661.66,51218,20.88,74574.0,10.75,-8.37,-9.49,0,*49
1535007662.9,51219,20.88,74572.8,10.79,-8.37,-9.41,0,*4C
1535007664.17,51220,20.88,74570.8,10.79,-8.51,-9.53,0,*45
1535007665.38,51221,20.88,74572.3,10.83,-8.63,-9.71,0,*40
1535007666.58,51222,20.88,74568.5,10.89,-8.71,-9.71,0,*4A
1535007667.79,51223,20.88,74574.5,10.93,-8.45,-9.41,0,*44
1535007669.01,51224,20.88,74572.0,10.93,-8.29,-9.37,0,*48
1535007670.19,51225,20.88,74568.3,10.97,-8.21,-9.19,0,*49
1535007671.38,51226,20.88,74572.3,11.01,-8.33,-9.27,0,*4A
1535007672.58,51227,20.88,74574.0,11.05,-8.25,-9.31,0,*4F
1535007673.86,51228,20.88,74572.8,11.07,-8.51,-9.53,0,*45
1535007675.09,51229,20.88,74570.5,11.11,-8.67,-9.79,0,*4E
1535007676.33,51230,20.88,74574.5,11.15,-8.81,-9.89,0,*45
1535007677.57,51231,20.88,74572.5,11.19,-8.63,-9.67,0,*44
1535007678.82,51232,20.88,74572.8,11.19,-8.59,-9.53,0,*49
1535007680.07,51233,20.88,74572.5,11.23,-8.67,-9.61,0,*4D
1535007681.35,51234,20.88,74574.0,11.23,-8.51,-9.61,0,*4F
1535007682.63,51235,20.88,74572.0,11.27,-8.51,-9.53,0,*4B
1535007683.88,51236,20.88,74572.8,11.31,-8.59,-9.61,0,*46
1535007685.11,51237,20.88,74574.5,11.35,-8.63,-9.57,0,*4F
1535007686.33,51238,20.88,74574.5,11.37,-8.37,-9.31,0,*43
1535007687.54,51239,20.88,74572.8,11.41,-8.33,-9.31,0,*47
1535007688.79,51240,20.88,74576.3,11.41,-8.37,-9.41,0,*4A
1535007690.04,51241,20.88,74574.5,11.45,-8.37,-9.37,0,*4E
1535007691.25,51242,20.88,74574.5,11.49,-8.25,-9.27,0,*43
1535007692.45,51243,20.88,74574.3,11.51,-8.29,-9.27,0,*47
1535007693.66,51244,20.88,74574.5,11.57,-8.37,-9.31,0,*4E
1535007694.9,51245,20.88,74574.3,11.57,-8.45,-9.41,0,*4D
1535007696.15,51246,20.88,74572.0,11.59,-8.51,-9.49,0,*4D
1535007697.4,51247,20.88,74574.0,11.63,-8.51,-9.45,0,*49
1535007698.59,51248,20.88,74574.8,11.65,-8.33,-9.31,0,*47
1535007699.82,51249,20.88,74572.3,11.67,-8.71,-9.79,0,*4E
1535007701.04,51250,20.88,74574.5,11.69,-8.75,-9.83,0,*49
1535007702.28,51251,20.88,74576.0,11.71,-8.81,-9.89,0,*40
1535007703.51,51252,20.88,74576.8,11.75,-8.71,-9.79,0,*47
1535007704.73,51253,20.88,74574.8,11.75,-8.67,-9.67,0,*4E
1535007705.95,51254,20.88,74574.5,11.81,-8.55,-9.61,0,*45
1535007707.15,51255,20.88,74576.8,11.81,-8.67,-9.71,0,*44
1535007708.35,51256,20.88,74572.5,11.85,-8.63,-9.71,0,*47
1535007709.57,51257,20.88,74576.8,11.87,-8.29,-9.27,0,*49
1535007710.81,51258,20.88,74574.3,11.91,-8.37,-9.37,0,*4F
1535007712.02,51259,20.88,74576.0,11.91,-8.17,-9.31,0,*4A
1535007713.29,51260,20.88,74576.8,11.95,-8.07,-9.15,0,*43
1535007714.48,51261,20.88,74576.3,11.99,-7.87,-8.93,0,*46
1535007715.71,51262,20.88,74578.0,12.01,-7.83,-8.85,0,*44
1535007716.93,51263,20.88,74578.3,12.05,-8.21,-9.27,0,*4F
1535007718.14,51264,20.88,74574.8,12.09,-8.21,-9.27,0,*44
1535007719.41,51265,20.88,74574.3,12.09,-8.07,-9.37,0,*40
1535007720.64,51266,20.88,74572.8,12.13,-8.71,-9.89,0,*4C
1535007721.87,51267,20.88,74578.8,12.13,-8.93,-10.05,0,*7D
1535007723.1,51268,20.88,74574.5,12.17,-8.85,-10.05,0,*71
1535007724.32,51269,20.88,74576.3,12.17,-8.75,-9.93,0,*48
1535007725.54,51270,20.88,74578.0,12.19,-8.81,-9.79,0,*41
1535007726.75,51271,20.88,74578.0,12.21,-8.59,-9.89,0,*41
1535007727.94,51272,20.88,74574.5,12.23,-8.75,-9.89,0,*4E
1535007729.16,51273,20.88,74576.3,12.27,-9.01,-10.15,0,*74
1535007730.37,51274,20.88,74578.3,12.31,-9.05,-10.31,0,*76
1535007731.6,51275,20.88,74576.5,12.31,-9.11,-10.31,0,*72
1535007732.86,51276,20.88,74576.3,12.31,-9.41,-10.63,0,*73
1535007734.07,51277,20.88,74576.3,12.31,-9.53,-10.85,0,*79
1535007735.32,51278,20.88,74578.0,12.31,-9.53,-10.75,0,*79
1535007736.55,51279,20.88,74578.5,12.35,-9.37,-10.57,0,*7E
1535007737.81,51280,20.88,74576.5,12.33,-9.27,-10.63,0,*78
1535007739.04,51281,20.88,74576.5,12.37,-9.19,-10.49,0,*78
1535007740.27,51282,20.88,74578.0,12.37,-8.97,-10.27,0,*74
1535007741.5,51283,20.88,74578.0,12.39,-9.19,-10.41,0,*7C
1535007742.79,51284,20.88,74576.0,12.41,-9.41,-10.63,0,*79
1535007744.05,51285,20.88,74572.5,12.41,-9.15,-10.45,0,*7D
1535007745.26,51286,20.88,74576.8,12.43,-9.01,-10.27,0,*7D
1535007746.49,51287,20.88,74576.0,12.43,-9.11,-10.53,0,*7E
1535007747.73,51288,20.88,74576.8,12.49,-8.89,-10.01,0,*7C
1535007748.97,51289,20.88,74576.3,12.49,-9.01,-10.27,0,*78
1535007750.2,51290,20.88,74576.8,12.53,-9.27,-10.57,0,*78
1535007751.42,51291,20.88,74574.8,12.53,-9.27,-10.45,0,*7A
1535007752.63,51292,20.88,74578.0,12.55,-8.97,-10.27,0,*71
1535007753.86,51293,20.88,74578.5,12.57,-8.89,-10.05,0,*7D
1535007755.1,51294,20.88,74576.0,12.57,-9.05,-10.27,0,*7F
1535007756.3,51295,20.88,74578.8,12.59,-9.01,-10.23,0,*70
1535007757.51,51296,20.88,74578.8,12.61,-8.85,-10.05,0,*71
1535007758.71,51297,20.88,74578.0,12.61,-8.59,-9.93,0,*46
1535007759.92,51298,20.88,74574.0,12.65,-8.63,-9.79,0,*40
1535007761.14,51299,20.88,74576.8,12.67,-8.59,-9.71,0,*42
1535007762.35,51300,20.88,74574.5,12.69,-8.89,-10.15,0,*7A
1535007763.59,51301,20.88,74576.8,12.69,-9.19,-10.41,0,*72
1535007764.79,51302,20.88,74576.5,12.73,-9.23,-10.45,0,*77
1535007766.02,51303,20.88,74574.5,12.75,-8.93,-10.05,0,*7E
1535007767.25,51304,20.88,74574.5,12.75,-9.23,-10.45,0,*77
1535007768.47,51305,20.88,74572.8,12.79,-9.31,-10.45,0,*79
1535007769.7,51306,20.88,74576.3,12.79,-9.27,-10.45,0,*7D
1535007770.89,51307,20.88,74574.0,12.81,-8.75,-9.97,0,*4A
1535007772.12,51308,20.88,74574.8,12.81,-8.81,-10.01,0,*79
1535007773.37,51309,20.88,74574.5,12.83,-8.41,-9.53,0,*49
1535007774.6,51310,20.88,74574.5,12.87,-8.33,-9.37,0,*42
1535007775.83,51311,20.88,74576.0,12.89,-8.37,-9.61,0,*4A
1535007777.07,51312,20.88,74572.5,12.91,-8.45,-9.53,0,*44
1535007778.32,51313,20.88,74572.3,12.91,-8.41,-9.53,0,*41
1535007779.55,51314,20.88,74578.5,12.97,-8.55,-9.79,0,*4D
1535007780.75,51315,20.88,74576.3,12.99,-8.75,-9.89,0,*4F
1535007782.0,51316,20.88,74574.5,13.01,-8.67,-9.83,0,*45
1535007783.24,51317,20.88,74574.3,13.03,-8.51,-9.57,0,*4A
1535007784.46,51318,20.88,74576.0,13.05,-8.67,-9.89,0,*45
1535007785.68,51319,20.88,74574.0,13.07,-8.33,-9.37,0,*42
1535007786.96,51320,20.88,74576.3,13.09,-8.51,-9.61,0,*41
1535007788.17,51321,20.88,74572.8,13.11,-8.45,-9.57,0,*49
1535007789.38,51322,20.88,74574.8,13.11,-9.01,-10.23,0,*70
1535007790.6,51323,20.88,74576.5,13.13,-8.97,-9.97,0,*4A
1535007791.82,51324,20.88,74576.5,13.17,-8.71,-9.89,0,*4E
1535007793.04,51325,20.88,74574.5,13.19,-8.81,-9.93,0,*45
1535007794.31,51326,20.88,74574.8,13.21,-8.51,-9.57,0,*48
1535007795.53,51327,20.88,74570.5,13.23,-8.25,-9.41,0,*4F
1535007796.74,51328,20.88,74576.0,13.23,-8.89,-10.01,0,*7A
1535007797.93,51329,20.88,74574.5,13.25,-8.75,-9.89,0,*46
1535007799.17,51330,20.88,74576.5,13.27,-8.29,-9.49,0,*49
1535007800.41,51331,20.88,74576.8,13.31,-8.37,-9.57,0,*4F
1535007801.66,51332,20.88,74576.8,13.31,-8.11,-9.31,0,*48
1535007802.89,51333,20.88,74578.3,13.35,-8.33,-9.53,0,*49
1535007804.11,51334,20.88,74572.5,13.35,-8.45,-9.67,0,*48
1535007805.31,51335,20.88,74574.3,13.37,-8.97,-10.09,0,*74
1535007806.51,51336,20.88,74574.0,13.37,-8.97,-10.19,0,*76
1535007807.78,51337,20.88,74572.8,13.41,-9.11,-10.41,0,*74
1535007808.99,51338,20.88,74574.5,13.41,-8.93,-10.15,0,*71
1535007810.19,51339,20.88,74576.0,13.45,-9.01,-10.23,0,*7B
1535007811.4,51340,20.88,74576.0,13.45,-9.05,-10.27,0,*75
1535007812.61,51341,20.88,74572.8,13.45,-8.93,-10.23,0,*7E
1535007813.84,51342,20.88,74572.8,13.47,-8.89,-10.19,0,*7D
1535007815.05,51343,20.88,74574.8,13.49,-9.05,-10.31,0,*7D
1535007816.26,51344,20.88,74578.5,13.49,-9.05,-10.35,0,*7E
1535007817.49,51345,20.88,74574.0,13.51,-9.05,-10.19,0,*78
1535007818.72,51346,20.88,74574.0,13.51,-9.05,-10.15,0,*77
1535007819.94,51347,20.88,74574.0,13.53,-8.51,-9.75,0,*4A
1535007821.17,51348,20.88,74576.8,13.57,-8.45,-9.71,0,*40
1535007822.44,51349,20.88,74574.5,13.57,-8.51,-9.83,0,*49
1535007823.69,51350,20.88,74574.0,13.57,-8.29,-9.53,0,*43
1535007824.91,51351,20.88,74574.5,13.63,-7.99,-9.19,0,*4F
1535007826.11,51352,20.88,74572.3,13.67,-8.37,-9.79,0,*45
1535007827.32,51353,20.88,74574.0,13.67,-8.71,-9.93,0,*42
1535007828.55,51354,20.88,74574.3,13.67,-8.51,-9.71,0,*4B
1535007829.75,51355,20.88,74574.5,13.71,-9.19,-10.45,0,*7F
1535007830.97,51356,20.88,74574.8,13.71,-9.61,-10.89,0,*73
1535007832.17,51357,20.88,74578.3,13.71,-9.67,-10.97,0,*7B
1535007833.36,51358,20.88,74574.8,13.71,-9.67,-10.89,0,*7B
1535007834.56,51359,20.88,74570.0,13.71,-9.79,-11.19,0,*7D
1535007835.79,51360,20.88,74574.3,13.73,-9.31,-10.57,0,*72
1535007837.06,51361,20.88,74574.0,13.73,-9.05,-10.41,0,*73
1535007838.3,51362,20.88,74572.3,13.75,-9.15,-10.49,0,*7F
1535007839.54,51363,20.88,74574.3,13.75,-9.31,-10.67,0,*74
1535007840.74,51364,20.88,74572.3,13.75,-9.27,-10.53,0,*73
1535007841.96,51365,20.88,74574.3,13.79,-8.41,-9.61,0,*46
1535007843.16,51366,20.88,74574.0,13.79,-7.87,-9.05,0,*42
1535007844.41,51367,20.88,74574.8,13.85,-7.69,-8.89,0,*45
1535007845.62,51368,20.88,74574.5,13.87,-7.69,-8.89,0,*48
1535007846.84,51369,20.88,74576.8,13.89,-7.53,-8.81,0,*46
1535007848.02,51370,20.88,74572.0,13.93,-7.49,-8.75,0,*45
1535007849.26,51371,20.88,74572.0,13.95,-7.39,-8.59,0,*4B
1535007850.47,51372,20.88,74572.0,13.97,-7.43,-8.71,0,*4D
1535007851.69,51373,20.88,74574.5,14.01,-7.87,-9.11,0,*4B
1535007852.93,51374,20.88,74574.5,13.99,-8.33,-9.61,0,*4D
1535007854.15,51375,20.88,74576.3,14.03,-8.97,-10.31,0,*7B
1535007855.43,51376,20.88,74572.8,14.03,-9.37,-10.75,0,*73
1535007856.66,51377,20.88,74572.0,14.05,-9.31,-10.71,0,*76
1535007857.88,51378,20.88,74574.5,14.03,-9.23,-10.53,0,*7C
1535007859.08,51379,20.88,74578.0,14.05,-9.19,-10.57,0,*76
1535007860.31,51380,20.88,74576.8,14.05,-9.27,-10.67,0,*7E
1535007861.53,51381,20.88,74576.8,14.05,-9.45,-10.85,0,*77
1535007862.74,51382,20.88,74572.3,14.09,-9.93,-11.33,0,*7F
1535007863.99,51383,20.88,74572.3,14.09,-9.49,-10.79,0,*76
1535007865.24,51384,20.88,74574.5,14.11,-9.27,-10.63,0,*7B
1535007866.49,51385,20.88,74574.8,14.09,-9.37,-10.79,0,*79
1535007867.76,51386,20.88,74572.0,14.11,-9.49,-10.75,0,*76
1535007869.0,51387,20.88,74574.8,14.11,-9.49,-10.89,0,*74
1535007870.24,51388,20.88,74572.0,14.11,-9.49,-10.89,0,*7B
1535007871.46,51389,20.88,74574.0,14.11,-9.23,-10.53,0,*71
1535007872.7,51390,20.88,74576.3,14.15,-8.85,-10.19,0,*7E
1535007873.93,51391,20.88,74572.8,14.15,-8.97,-10.15,0,*70
1535007875.16,51392,20.88,74570.3,14.15,-8.97,-10.31,0,*75
1535007876.4,51393,20.88,74572.0,14.17,-8.51,-9.83,0,*4D
1535007877.62,51394,20.88,74574.8,14.19,-8.59,-10.05,0,*7A
1535007878.82,51395,20.88,74574.0,14.23,-8.41,-9.79,0,*48
1535007880.08,51396,20.88,74574.8,14.21,-9.27,-10.63,0,*7B
1535007881.32,51397,20.88,74572.3,14.21,-8.89,-10.31,0,*78
1535007882.55,51398,20.88,74574.0,14.23,-9.11,-10.49,0,*7A
1535007883.76,51399,20.88,74574.0,14.23,-8.93,-10.27,0,*78
1535007884.97,51400,20.88,74574.0,14.27,-9.05,-10.45,0,*71
1535007886.19,51401,20.88,74574.0,14.25,-8.75,-10.09,0,*7C
1535007887.43,51402,20.88,74576.0,14.27,-9.15,-10.53,0,*75
1535007888.63,51403,20.88,74574.5,14.31,-8.97,-10.49,0,*73
1535007889.87,51404,20.88,74572.0,14.33,-8.71,-10.05,0,*76
1535007891.1,51405,20.88,74578.0,14.33,-8.85,-10.23,0,*78
1535007892.29,51406,20.88,74574.8,14.35,-8.55,-9.89,0,*48
1535007893.52,51407,20.88,74570.0,14.37,-8.41,-9.71,0,*49
1535007894.73,51408,20.88,74572.0,14.39,-7.95,-9.19,0,*40
1535007895.94,51409,20.88,74572.5,14.39,-8.03,-9.31,0,*4B
1535007897.18,51410,20.88,74574.5,14.41,-8.29,-9.53,0,*40
1535007898.43,51411,20.88,74572.8,14.45,-8.21,-9.45,0,*4A
1535007899.65,51412,20.88,74574.5,14.45,-8.41,-9.75,0,*4C
1535007900.89,51413,20.88,74576.0,14.49,-8.21,-9.45,0,*44
1535007902.1,51414,20.88,74574.5,14.49,-8.33,-9.67,0,*40
1535007903.3,51415,20.88,74574.0,14.53,-8.45,-9.75,0,*48
1535007904.53,51416,20.88,74574.8,14.53,-8.81,-10.09,0,*70
1535007905.74,51417,20.88,74576.5,14.55,-8.67,-9.97,0,*40
1535007906.98,51418,20.88,74572.8,14.55,-8.85,-10.19,0,*7D
1535007908.21,51419,20.88,74572.8,14.59,-8.45,-9.71,0,*4A
1535007909.45,51420,20.88,74572.0,14.59,-8.71,-10.01,0,*78
1535007910.67,51421,20.88,74576.3,14.61,-8.21,-9.53,0,*48
1535007911.9,51422,20.88,74576.8,14.63,-8.33,-9.61,0,*4B
1535007913.1,51423,20.88,74574.5,14.65,-8.63,-9.93,0,*44
1535007914.29,51424,20.88,74576.5,14.65,-8.75,-9.93,0,*44
1535007915.53,51425,20.88,74578.5,14.67,-8.85,-10.15,0,*7E
1535007916.8,51426,20.88,74574.0,14.67,-9.37,-10.63,0,*74
1535007918.06,51427,20.88,74574.5,14.67,-8.81,-10.15,0,*78
1535007919.27,51428,20.88,74574.5,14.67,-8.63,-9.93,0,*4D
1535007920.53,51429,20.88,74574.8,14.71,-9.15,-10.49,0,*74
1535007921.76,51430,20.88,74574.0,14.71,-9.31,-10.57,0,*75
1535007923.01,51431,20.88,74572.0,14.71,-9.31,-10.71,0,*70
1535007924.29,51432,20.88,74576.3,14.75,-9.41,-10.75,0,*74
1535007925.51,51433,20.88,74574.3,14.75,-9.23,-10.49,0,*7E
1535007926.77,51434,20.88,74576.0,14.75,-9.27,-10.63,0,*75
1535007928.02,51435,20.88,74574.0,14.77,-9.61,-10.63,0,*74
1535007929.25,51436,20.88,74576.0,14.77,-9.31,-10.63,0,*72
1535007930.47,51437,20.88,74576.3,14.77,-8.81,-10.05,0,*79
1535007931.69,51438,20.88,74574.5,14.79,-8.45,-9.71,0,*4B
1535007932.91,51439,20.88,74572.3,14.81,-8.37,-9.83,0,*45
1535007934.15,51440,20.88,74570.5,14.83,-9.83,-11.19,0,*7D
1535007935.4,51441,20.88,74574.5,14.83,-10.19,-11.37,0,*4B
1535007936.64,51442,20.88,74574.0,14.83,-8.85,-10.19,0,*79
1535007937.84,51443,20.88,74572.8,14.85,-8.59,-9.93,0,*45
1535007939.05,51444,20.88,74578.3,14.85,-8.29,-9.41,0,*4A
1535007940.27,51445,20.88,74574.5,14.87,-8.25,-9.67,0,*41
1535007941.48,51446,20.88,74576.5,14.89,-8.89,-10.23,0,*72
1535007942.72,51447,20.88,74574.0,14.89,-9.15,-10.45,0,*77
1535007943.91,51448,20.88,74576.3,14.89,-9.89,-11.23,0,*7C
1535007945.14,51449,20.88,74576.5,14.89,-9.71,-11.07,0,*7C
1535007946.39,51450,20.88,74578.0,14.91,-9.27,-10.63,0,*7D
1535007947.6,51451,20.88,74572.3,14.93,-9.23,-10.53,0,*79
1535007948.85,51452,20.88,74576.8,14.93,-9.37,-10.75,0,*7B
1535007950.06,51453,20.88,74576.3,14.93,-8.97,-10.23,0,*72
1535007951.25,51454,20.88,74572.3,14.93,-8.63,-9.97,0,*49
1535007952.5,51455,20.88,74570.5,14.99,-8.81,-10.15,0,*7C
1535007953.78,51456,20.88,74574.3,14.99,-8.11,-9.45,0,*4B
1535007955.03,51457,20.88,74574.5,15.03,-7.83,-9.11,0,*4D
1535007956.3,51458,20.88,74576.3,15.03,-8.07,-9.41,0,*44
1535007957.51,51459,20.88,74572.0,15.05,-8.33,-9.57,0,*43
1535007958.73,51460,20.88,74574.8,15.07,-8.33,-9.67,0,*48
1535007959.98,51461,20.88,74570.5,15.07,-8.17,-9.53,0,*48
1535007961.24,51462,20.88,74574.3,15.07,-8.03,-9.37,0,*4C
1535007962.48,51463,20.88,74574.3,15.11,-8.21,-9.57,0,*4C
1535007963.67,51464,20.88,74574.0,15.13,-8.33,-9.71,0,*4E
1535007964.87,51465,20.88,74576.3,15.13,-8.63,-10.01,0,*75
1535007966.1,51466,20.88,74572.5,15.15,-8.97,-10.31,0,*78
1535007967.32,51467,20.88,74574.5,15.17,-8.59,-9.97,0,*4D
1535007968.54,51468,20.88,74574.3,15.21,-8.29,-9.71,0,*48
1535007969.77,51469,20.88,74576.0,15.21,-8.63,-9.93,0,*4B
1535007971.05,51470,20.88,74572.0,15.21,-8.07,-9.45,0,*4A
1535007972.28,51471,20.88,74572.3,15.21,-8.93,-10.31,0,*7D
1535007973.56,51472,20.88,74572.3,15.25,-9.41,-10.79,0,*78
1535007974.79,51473,20.88,74572.3,15.23,-9.57,-10.93,0,*7C
1535007976.03,51474,20.88,74572.8,15.25,-9.57,-10.97,0,*79
1535007977.28,51475,20.88,74574.3,15.25,-9.57,-10.97,0,*78
1535007978.53,51476,20.88,74574.3,15.25,-9.27,-10.79,0,*7C
1535007979.79,51477,20.88,74574.0,15.25,-8.97,-10.41,0,*7C
1535007981.03,51478,20.88,74572.8,15.25,-8.89,-10.35,0,*7F
1535007982.24,51479,20.88,74568.8,15.27,-8.85,-10.23,0,*77
1535007983.49,51480,20.88,74574.0,15.29,-8.81,-10.15,0,*7E
1535007984.71,51481,20.88,74572.3,15.27,-8.81,-10.09,0,*7C
1535007985.95,51482,20.88,74568.5,15.27,-9.11,-10.57,0,*7C
1535007987.19,51483,20.88,74572.5,15.29,-9.49,-10.97,0,*72
1535007988.45,51484,20.88,74570.8,15.29,-9.31,-10.63,0,*71
1535007989.69,51485,20.88,74568.5,15.29,-9.45,-10.85,0,*7B
1535007990.94,51486,20.88,74570.0,15.29,-9.11,-10.57,0,*76
1535007992.19,51487,20.88,74572.8,15.31,-9.45,-11.07,0,*7B
1535007993.39,51488,20.88,74568.5,15.31,-9.67,-11.11,0,*73
1535007994.59,51489,20.88,74568.5,15.31,-9.75,-11.19,0,*79
1535007995.86,51490,20.88,74570.3,15.33,-9.53,-11.07,0,*78
1535007997.05,51491,20.88,74572.0,15.31,-9.67,-11.11,0,*7B
1535007998.34,51492,20.88,74574.3,15.33,-9.15,-10.67,0,*7F
1535007999.55,51493,20.88,74568.0,15.31,-8.93,-10.49,0,*7F
1535008000.77,51494,20.88,74574.0,15.33,-8.71,-10.09,0,*72
1535008001.99,51495,20.88,74570.0,15.33,-8.21,-9.67,0,*46
1535008003.23,51496,20.88,74570.5,15.35,-7.95,-9.41,0,*47
1535008004.45,51497,20.88,74572.8,15.37,-7.87,-9.27,0,*47
1535008005.71,51498,20.88,74568.3,15.37,-7.95,-9.49,0,*43
1535008006.91,51499,20.88,74570.5,15.43,-8.25,-9.71,0,*4E
1535008008.1,51500,20.88,74568.3,15.43,-8.33,-9.75,0,*4C
1535008009.32,51501,20.88,74568.5,15.45,-8.67,-10.09,0,*79
1535008010.56,51502,20.88,74572.3,15.47,-8.03,-9.53,0,*4D
1535008011.8,51503,20.88,74574.5,15.49,-7.99,-9.45,0,*49
1535008013.02,51504,20.88,74568.0,15.49,-8.17,-9.61,0,*41
1535008014.29,51505,20.88,74572.3,15.51,-7.91,-9.45,0,*4E
1535008015.56,51506,20.88,74570.3,15.55,-8.03,-9.53,0,*4A
1535008016.82,51507,20.88,74568.8,15.55,-8.03,-9.53,0,*4B
1535008018.09,51508,20.88,74570.8,15.55,-8.03,-9.45,0,*43
1535008019.33,51509,20.88,74570.5,15.59,-7.73,-9.31,0,*45
1535008020.57,51510,20.88,74574.0,15.59,-7.77,-9.31,0,*49
1535008021.84,51511,20.88,74570.8,15.63,-8.11,-9.57,0,*4E
1535008023.08,51512,20.88,74568.0,15.63,-7.61,-9.05,0,*42
1535008024.36,51513,20.88,74570.8,15.67,-7.57,-9.11,0,*47
1535008025.6,51514,20.88,74568.5,15.69,-7.91,-9.37,0,*40
1535008026.78,51515,20.88,74570.8,15.73,-7.49,-9.05,0,*4E
1535008027.99,51516,20.88,74568.0,15.73,-7.39,-8.93,0,*44
1535008029.2,51517,20.88,74570.3,15.73,-7.87,-9.45,0,*4A
1535008030.41,51518,20.88,74566.5,15.77,-7.87,-9.41,0,*45
1535008031.6,51519,20.88,74568.8,15.77,-8.25,-9.75,0,*44
1535008032.78,51520,20.88,74572.3,15.77,-8.29,-9.89,0,*41
1535008033.99,51521,20.88,74568.0,15.79,-8.33,-9.97,0,*4A
1535008035.23,51522,20.88,74570.8,15.79,-8.85,-10.35,0,*74
1535008036.48,51523,20.88,74568.3,15.79,-9.15,-10.85,0,*76
1535008037.7,51524,20.88,74568.0,15.81,-8.63,-10.15,0,*7F
1535008038.92,51525,20.88,74570.0,15.81,-8.21,-9.75,0,*46
1535008040.16,51526,20.88,74568.8,15.81,-8.21,-9.83,0,*4C
1535008041.39,51527,20.88,74568.0,15.83,-7.99,-9.57,0,*4A
1535008042.64,51528,20.88,74570.5,15.85,-8.75,-10.41,0,*71
1535008043.89,51529,20.88,74566.8,15.85,-9.05,-10.75,0,*71
1535008045.15,51530,20.88,74570.3,15.85,-10.27,-11.93,0,*48
1535008046.36,51531,20.88,74568.8,15.83,-11.37,-13.47,0,*44
1535008047.61,51532,20.88,74568.3,15.81,-11.85,-13.55,0,*4F
1535008048.8,51533,20.88,74574.0,15.77,-12.03,-13.73,0,*4E
1535008050.05,51534,20.88,74570.0,15.75,-11.77,-13.55,0,*4F
1535008051.33,51535,20.88,74568.8,15.75,-11.93,-13.61,0,*43
1535008052.58,51536,20.88,74570.5,15.71,-11.89,-13.73,0,*4C
1535008053.81,51537,20.88,74568.5,15.67,-12.29,-14.15,0,*44
1535008055.04,51538,20.88,74570.8,15.67,-12.43,-14.19,0,*4B
1535008056.26,51539,20.88,74572.5,15.61,-12.35,-14.33,0,*45
1535008057.52,51540,20.88,74572.5,15.59,-12.57,-14.37,0,*40
1535008058.77,51541,20.88,74572.8,15.57,-12.83,-14.55,0,*42
1535008060.0,51542,20.88,74572.0,15.53,-12.35,-14.11,0,*48
1535008061.25,51543,20.88,74568.8,15.51,-12.97,-14.83,0,*48
1535008062.48,51544,20.88,74574.0,15.49,-13.07,-14.79,0,*4B
1535008063.71,51545,20.88,74570.3,15.47,-13.43,-15.21,0,*48
1535008064.94,51546,20.88,74572.0,15.43,-13.47,-15.35,0,*4E
1535008066.17,51547,20.88,74568.5,15.39,-13.11,-14.97,0,*48
1535008067.44,51548,20.88,74570.8,15.37,-12.83,-14.75,0,*4F
1535008068.67,51549,20.88,74572.3,15.35,-12.71,-14.61,0,*44
1535008069.9,51550,20.88,74572.5,15.31,-12.65,-14.65,0,*49
1535008071.1,51551,20.88,74570.3,15.31,-12.29,-14.19,0,*4B
1535008072.36,51552,20.88,74570.0,15.27,-12.61,-14.55,0,*4B
1535008073.62,51553,20.88,74568.8,15.27,-13.01,-15.01,0,*4D
1535008074.88,51554,20.88,74570.8,15.23,-12.75,-14.51,0,*48
1535008076.11,51555,20.88,74570.0,15.21,-13.11,-15.07,0,*4A
1535008077.37,51556,20.88,74568.5,15.21,-13.47,-15.39,0,*47
1535008078.6,51557,20.88,74570.0,15.17,-13.73,-15.71,0,*48
1535008079.86,51558,20.88,74570.8,15.11,-13.47,-15.35,0,*46
1535008081.08,51559,20.88,74566.5,15.09,-12.79,-14.69,0,*4A
1535008082.32,51560,20.88,74572.5,15.07,-13.23,-15.29,0,*45
1535008083.56,51561,20.88,74570.8,15.05,-13.73,-15.81,0,*41
1535008084.79,51562,20.88,74572.5,15.01,-14.19,-16.23,0,*46
1535008086.06,51563,20.88,74570.3,14.95,-13.51,-15.57,0,*40
1535008087.34,51564,20.88,74568.5,14.95,-13.01,-14.97,0,*4F
1535008088.6,51565,20.88,74568.5,14.95,-11.07,-13.15,0,*47
1535008089.85,51566,20.88,74574.5,14.95,-9.79,-11.73,0,*76
1535008091.1,51567,20.88,74566.8,14.95,-9.67,-11.73,0,*78
1535008092.35,51568,20.88,74568.8,14.99,-8.93,-10.71,0,*72
1535008093.59,51569,20.88,74568.3,15.03,-8.89,-10.93,0,*76
1535008094.85,51570,20.88,74570.3,15.03,-8.63,-10.63,0,*75
1535008096.08,51571,20.88,74570.3,15.07,-8.67,-10.57,0,*73
1535008097.28,51572,20.88,74574.8,15.09,-8.75,-10.57,0,*7D
1535008098.47,51573,20.88,74572.3,15.09,-8.93,-10.85,0,*7B
1535008099.73,51574,20.88,74568.8,15.11,-8.89,-10.67,0,*72
1535008100.95,51575,20.88,74574.8,15.15,-8.33,-10.23,0,*76
1535008102.18,51576,20.88,74574.5,15.15,-8.21,-10.19,0,*7F
1535008103.45,51577,20.88,74568.3,15.21,-7.95,-9.83,0,*42